Alpena, MI

8:53 AM EDT on May 27, 2018 (GMT -0400)
Alpena County Regional

Weather History for KAPN - January, 2013

Change the Weather History Date:

Tuesday, January 1, 2013

  Actual Average Record
Temperature  
Mean Temperature 17 °F 21 °F  
Max Temperature 23 °F 28 °F 56 °F (1955)
Min Temperature 11 °F 14 °F -18 °F (1947)
Degree Days  
Heating Degree Days 48 44  
Month to date heating degree days 48 44  
Since 1 July heating degree days 2824 3105  
Moisture  
Dew Point 11 °F    
Average Humidity 75    
Maximum Humidity 92    
Minimum Humidity 57    
Precipitation  
Precipitation T in 0.06 in 0.77 in (1932)
Month to date precipitation T 0.06  
Year to date precipitation T 0.06  
Snow  
Snow 0.20 in 0.70 in 9.00 in (1985)
Month to date snowfall 0.2 0.7  
Since 1 July snowfall 13.9 28.0  
Snow Depth 4.00 in    
Sea Level Pressure  
Sea Level Pressure 30.06 in    
Wind  
Wind Speed 7 mph (West)    
Max Wind Speed 14 mph    
Max Gust Speed 20 mph    
Visibility 8 miles    
Events Snow    
T = Trace of Precipitation, MM = Missing Value Source: NWS Daily Summary

Daily Weather History Graph

Daily Weather History Graph

Search for Another Location

Airport or City:

Astronomy

Jan. 01, 2013 Rise Set
Actual Time 8:12 AM EST 5:03 PM EST
Civil Twilight 7:39 AM EST 5:37 PM EST
Nautical Twilight 7:02 AM EST 6:14 PM EST
Astronomical Twilight 6:26 AM EST 6:49 PM EST
Moon 9:46 PM EST (1/1) 10:12 AM EST (1/1)
Length of Visible Light 9h 57m
Length of Day
8h 50m
Waning Gibbous, 83% of the Moon is Illuminated
Jan 1
Waning Gibbous
Jan 4
Last Quarter
Jan 11
New
Jan 18
First Quarter
Jan 26
Full

Hourly Weather History & Observations

Time (EST) Temp. Windchill Dew Point Humidity Pressure Visibility Wind Dir Wind Speed Gust Speed Precip Events Conditions
12:54 AM 19.0 °F 9.0 °F 9.0 °F 65% 30.02 in 9.0 mi West 8.1 mph - 0.00 in Snow Light Snow
1:54 AM 19.0 °F 11.1 °F 10.0 °F 68% 30.03 in 9.0 mi WNW 5.8 mph - 0.00 in Snow Light Snow
2:37 AM 17.6 °F 9.3 °F 10.4 °F 73% 30.02 in 3.0 mi WNW 5.8 mph - 0.00 in Snow Light Snow
2:54 AM 18.0 °F 11.1 °F 12.0 °F 78% 30.07 in 4.0 mi West 4.6 mph - 0.00 in Snow Light Snow
3:13 AM 17.6 °F 8.2 °F 12.2 °F 79% 30.04 in 4.0 mi West 6.9 mph - 0.00 in Snow Light Snow
3:54 AM 17.1 °F 8.7 °F 12.9 °F 84% 30.08 in 2.0 mi WNW 5.8 mph - 0.00 in Snow Light Snow
4:09 AM 17.6 °F 10.7 °F 12.2 °F 79% 30.04 in 3.0 mi WNW 4.6 mph - 0.00 in Snow Light Snow
4:16 AM 17.6 °F 10.7 °F 12.2 °F 79% 30.04 in 2.5 mi WNW 4.6 mph - 0.00 in Snow Light Snow
4:24 AM 17.6 °F 8.2 °F 12.2 °F 79% 30.04 in 3.0 mi NW 6.9 mph - 0.00 in Snow Light Snow
4:54 AM 17.1 °F 7.6 °F 12.0 °F 81% 30.08 in 8.0 mi NNW 6.9 mph - 0.00 in Snow Light Snow
5:54 AM 17.1 °F - 12.0 °F 81% 30.09 in 9.0 mi Calm Calm - 0.00 in Snow Light Snow
6:54 AM 16.0 °F 8.8 °F 10.9 °F 81% 30.11 in 9.0 mi WNW 4.6 mph - 0.00 in Snow Light Snow
7:54 AM 12.9 °F 6.9 °F 10.0 °F 88% 30.13 in 6.0 mi West 3.5 mph - 0.00 in Snow Light Snow
8:54 AM 12.9 °F 5.2 °F 9.0 °F 84% 30.13 in 9.0 mi West 4.6 mph - 0.00 in Snow Light Snow
9:54 AM 17.1 °F 8.7 °F 10.9 °F 77% 30.14 in 9.0 mi West 5.8 mph - 0.00 in Snow Light Snow
10:54 AM 19.0 °F 11.1 °F 10.0 °F 68% 30.14 in 9.0 mi WNW 5.8 mph - 0.00 in Snow Light Snow
11:54 AM 19.0 °F 10.0 °F 8.1 °F 62% 30.12 in 9.0 mi WNW 6.9 mph - 0.00 in Snow Light Snow
12:54 PM 21.0 °F 9.3 °F 8.1 °F 57% 30.08 in 9.0 mi West 11.5 mph - 0.00 in Snow Light Snow
1:54 PM 21.9 °F 10.4 °F 9.0 °F 58% 30.04 in 9.0 mi West 11.5 mph 19.6 mph 0.00 in Snow Light Snow
2:54 PM 21.9 °F 12.5 °F 10.0 °F 60% 30.04 in 9.0 mi West 8.1 mph - 0.00 in Snow Light Snow
3:54 PM 21.9 °F 11.7 °F 10.9 °F 63% 30.04 in 9.0 mi West 9.2 mph - 0.00 in Snow Light Snow
4:54 PM 21.9 °F 11.0 °F 10.0 °F 60% 30.05 in 9.0 mi WSW 10.4 mph - 0.00 in Snow Light Snow
5:54 PM 21.9 °F 14.5 °F 12.0 °F 66% 30.04 in 9.0 mi WSW 5.8 mph - 0.00 in Snow Light Snow
6:54 PM 21.0 °F 11.4 °F 14.0 °F 74% 30.04 in 9.0 mi WSW 8.1 mph - 0.00 in Snow Light Snow
7:54 PM 21.0 °F 13.4 °F 12.9 °F 71% 30.03 in 8.0 mi West 5.8 mph - 0.00 in Snow Light Snow
8:54 PM 21.0 °F 14.6 °F 12.0 °F 68% 30.03 in 9.0 mi West 4.6 mph - 0.00 in Snow Light Snow
9:07 PM 21.2 °F 13.6 °F 12.2 °F 68% 29.98 in 9.0 mi West 5.8 mph - 0.00 in Snow Light Snow
9:54 PM 21.0 °F 10.6 °F 10.9 °F 65% 30.01 in 9.0 mi WSW 9.2 mph - 0.00 in Snow Light Snow
10:04 PM 21.2 °F 10.1 °F 10.4 °F 63% 29.97 in 9.0 mi WSW 10.4 mph - 0.00 in Snow Light Snow
10:54 PM 19.9 °F 9.3 °F 12.0 °F 71% 30.01 in 9.0 mi SW 9.2 mph - 0.00 in Snow Light Snow
11:54 PM 19.9 °F 10.1 °F 10.9 °F 68% 30.01 in 9.0 mi WSW 8.1 mph 18.4 mph 0.00 in Snow Light Snow